Regional Weather Roundup
Issued by NWS

Home | Current Version | Previous Version | Text Only | Print | Product List | Glossary Off
Versions: 1 2 3 4 5 6 7 8 9 10 11 12 13 14 15 16 17 18 19 20 21 22 23 24 25 26 27 28 29 30 31 32 33 34 35 36 37 38 39 40 41 42 43 44 45 46 47 48 49 50

000
ASUS43 KBIS 181010
RWRND

NORTH DAKOTA REGIONAL WEATHER ROUNDUP
NATIONAL WEATHER SERVICE BISMARCK ND
400 AM CST WED JAN 18 2017

NOTE: "FAIR" INDICATES FEW OR NO CLOUDS BELOW 12,000 FEET WITH NO
SIGNIFICANT WEATHER AND/OR OBSTRUCTIONS TO VISIBILITY.


NDZ001>003-009>011-017-181100-
NORTHWEST NORTH DAKOTA

CITY           SKY/WX    TMP DP  RH WIND       PRES   REMARKS
WILLISTON      FAIR      28  21  75 SE5       29.69S
MINOT          FAIR      34  26  72 SW14      29.64F
MINOT AFB      CLOUDY    34  27  75 W18       29.62F
$$

NDZ018>021-031>035-040>046-181100-
SOUTHWEST NORTH DAKOTA

CITY           SKY/WX    TMP DP  RH WIND       PRES   REMARKS
BISMARCK       FAIR      19  14  81 NE3       29.76R
DICKINSON      FAIR      35  22  58 W9        29.72S
GARRISON         N/A     31  23  72 W6        29.69S
HETTINGER ARPT CLOUDY    29  19  66 W7        29.77F
$$

NDZ004>008-012>016-024-026-027-054-181100-
NORTHEAST NORTH DAKOTA

CITY           SKY/WX    TMP DP  RH WIND       PRES   REMARKS
GRAND FORKS    CLOUDY    27  18  69 S14       29.69S WCI  16
GRND FRKS AFB  CLOUDY    23  17  80 S12       29.68S WCI  11
DEVILS LAKE    FAIR      26  22  84 CALM      29.68R
$$

NDZ022-023-025-028>030-036>039-047>053-181100-
SOUTHEAST NORTH DAKOTA

CITY           SKY/WX    TMP DP  RH WIND       PRES   REMARKS
FARGO          CLOUDY    21  16  81 S10       29.76R WCI  10
JAMESTOWN      FAIR      26  20  77 S5        29.71S
$$





USA.gov is the U.S. government's official web portal to all federal, state and local government web resources and services.